M I D A S
Marine Information and Data Acquisition System
Tripno 688 of the Zeeleeuw from 2004-04-26 06:30:06 to 2004-04-26 12:57:17
Back to CruiseResearch ActivitiesStationsMapUnderway DataData graphs

EquipmentUnitsComments
TimeDGPSUTC
LatitudeDGPSDM.mWGS84
LongitudeDGPSDM.mWGS84
SpeedMeteo Stationm/sRelative wind speed
DirectionMeteo StationdegRelative wind direction
TemperatureMeteo Stationdeg CelciusAir temperature
PressureMeteo StationPaAtmospheric pressure
HumidityMeteo Station%Relative humidity
Missing or incorrect values are displayed as -999
Metereological data collected by the RV Zeeleeuw from 2004-04-26 06:30:06 to 2004-04-26 12:57:17
                                                                                    Next 1000 lines
Time Latitude Longitude Speed Direction Temperature Pressure Humidity
2004-04-26 06:30:17 51°13.597 2°56.099 3.7 10 12.6 102200 63
2004-04-26 06:30:22 51°13.596 2°56.099 3.8 7 12.7 102200 63
2004-04-26 06:30:28 51°13.596 2°56.099 3.9 6 12.7 102200 63
2004-04-26 06:30:32 51°13.596 2°56.099 3.3 15 12.7 102200 63
2004-04-26 06:30:37 51°13.596 2°56.099 3 30 12.7 102200 63
2004-04-26 06:30:42 51°13.596 2°56.099 3 34 12.7 102200 63
2004-04-26 06:30:47 51°13.596 2°56.099 3.8 35 12.7 102200 63
2004-04-26 06:30:52 51°13.596 2°56.097 3.4 40 12.7 102200 63
2004-04-26 06:30:57 51°13.596 2°56.095 3.2 44 12.7 102200 63
2004-04-26 06:31:02 51°13.597 2°56.092 3 48 12.7 102200 63
2004-04-26 06:31:07 51°13.597 2°56.088 2.3 38 12.7 102200 63
2004-04-26 06:31:12 51°13.599 2°56.083 2.3 43 12.7 102200 62
2004-04-26 06:31:18 51°13.601 2°56.076 2 44 12.7 102200 62
2004-04-26 06:31:23 51°13.603 2°56.069 1.7 40 12.6 102200 62
2004-04-26 06:31:28 51°13.605 2°56.062 1.2 56 12.6 102200 62
2004-04-26 06:31:33 51°13.607 2°56.055 1.1 62 12.6 102200 62
2004-04-26 06:31:38 51°13.61 2°56.047 1 87 12.6 102200 62
2004-04-26 06:31:42 51°13.612 2°56.04 1.4 71 12.6 102200 62
2004-04-26 06:31:48 51°13.615 2°56.03 1.5 68 12.6 102200 62
2004-04-26 06:31:53 51°13.618 2°56.021 1.3 60 12.6 102200 62
2004-04-26 06:31:58 51°13.621 2°56.011 1.1 83 12.6 102200 62
2004-04-26 06:32:02 51°13.624 2°56.004 0.8 82 12.6 102200 62
2004-04-26 06:32:09 51°13.629 2°55.989 0.5 82 12.6 102200 62
2004-04-26 06:32:14 51°13.632 2°55.979 0.5 86 12.6 102200 62
2004-04-26 06:32:19 51°13.635 2°55.968 0.6 94 12.6 102200 62
2004-04-26 06:32:23 51°13.638 2°55.959 0.6 94 12.7 102200 62
2004-04-26 06:32:29 51°13.642 2°55.945 0.8 126 12.7 102200 62
2004-04-26 06:32:34 51°13.645 2°55.934 0.9 120 12.7 102200 62
2004-04-26 06:32:39 51°13.648 2°55.923 1.2 129 12.7 102200 62
2004-04-26 06:32:43 51°13.651 2°55.914 1.1 129 12.7 102200 62
2004-04-26 06:32:49 51°13.653 2°55.9 0.9 133 12.7 102200 62
2004-04-26 06:32:54 51°13.656 2°55.888 1.3 153 12.7 102200 62
2004-04-26 06:32:59 51°13.658 2°55.877 1.3 140 12.7 102200 62
2004-04-26 06:33:03 51°13.66 2°55.867 1.3 141 12.7 102200 62
2004-04-26 06:33:09 51°13.662 2°55.853 1.4 158 12.7 102200 62
2004-04-26 06:33:14 51°13.663 2°55.841 1.5 159 12.7 102200 63
2004-04-26 06:33:19 51°13.664 2°55.829 2.4 160 12.7 102200 63
2004-04-26 06:33:23 51°13.665 2°55.819 2.3 163 12.7 102200 63
2004-04-26 06:33:29 51°13.666 2°55.805 2.8 156 12.7 102200 63
2004-04-26 06:33:34 51°13.666 2°55.794 2.7 149 12.7 102200 63
2004-04-26 06:33:39 51°13.666 2°55.785 1.8 115 12.7 102200 63
2004-04-26 06:33:43 51°13.666 2°55.779 1.5 127 12.7 102200 63
2004-04-26 06:33:49 51°13.666 2°55.772 1.3 129 12.7 102200 63
2004-04-26 06:33:53 51°13.666 2°55.768 1.4 142 12.7 102200 63
2004-04-26 06:33:57 51°13.666 2°55.765 1.8 130 12.7 102200 63
2004-04-26 06:34:03 51°13.665 2°55.763 1.8 115 12.7 102200 63
2004-04-26 06:34:09 51°13.666 2°55.761 1.5 108 12.7 102200 63
2004-04-26 06:34:13 51°13.666 2°55.761 2 94 12.7 102200 63
2004-04-26 06:34:18 51°13.668 2°55.762 1.6 73 12.7 102200 63
2004-04-26 06:34:23 51°13.67 2°55.764 1.7 74 12.7 102200 63
2004-04-26 06:34:27 51°13.672 2°55.766 2 107 12.7 102200 63
2004-04-26 06:34:33 51°13.676 2°55.768 1.9 100 12.7 102200 63
2004-04-26 06:34:37 51°13.68 2°55.769 1.4 66 12.7 102200 63
2004-04-26 06:34:43 51°13.687 2°55.769 1.8 82 12.8 102200 63
2004-04-26 06:34:47 51°13.692 2°55.767 1.7 107 12.8 102200 63
2004-04-26 06:34:53 51°13.7 2°55.764 1.7 96 12.8 102200 63
2004-04-26 06:34:58 51°13.706 2°55.759 1.3 102 12.8 102200 63
2004-04-26 06:35:03 51°13.712 2°55.753 1.1 104 12.8 102200 63
2004-04-26 06:35:07 51°13.717 2°55.749 1.2 105 12.8 102200 63
2004-04-26 06:35:13 51°13.724 2°55.741 1.2 105 12.8 102200 63
2004-04-26 06:35:18 51°13.731 2°55.734 1.3 87 12.8 102200 63
2004-04-26 06:35:23 51°13.737 2°55.726 1.3 87 12.8 102200 63
2004-04-26 06:35:27 51°13.743 2°55.719 1.2 75 12.8 102200 63
2004-04-26 06:35:33 51°13.752 2°55.709 1.4 62 12.8 102200 63
2004-04-26 06:35:38 51°13.759 2°55.701 1 50 12.8 102200 63
2004-04-26 06:35:43 51°13.767 2°55.692 0.9 51 12.8 102200 63
2004-04-26 06:35:47 51°13.774 2°55.685 0.7 50 12.8 102200 63
2004-04-26 06:35:53 51°13.784 2°55.674 0.8 51 12.8 102200 63
2004-04-26 06:35:58 51°13.792 2°55.665 1 50 12.8 102200 63
2004-04-26 06:36:03 51°13.801 2°55.657 1.1 43 12.8 102200 63
2004-04-26 06:36:07 51°13.809 2°55.65 1.5 37 12.8 102200 63
2004-04-26 06:36:13 51°13.82 2°55.641 1.5 37 12.8 102200 63
2004-04-26 06:36:18 51°13.829 2°55.633 1.3 24 12.8 102200 63
2004-04-26 06:36:25 51°13.843 2°55.623 1.2 25 12.9 102200 63
2004-04-26 06:36:29 51°13.851 2°55.617 1.1 20 12.9 102200 63
2004-04-26 06:36:35 51°13.862 2°55.607 1.4 19 12.9 102200 63
2004-04-26 06:36:39 51°13.871 2°55.603 1.4 19 12.9 102200 63
2004-04-26 06:36:43 51°13.88 2°55.597 1.3 19 12.8 102200 62
2004-04-26 06:36:49 51°13.892 2°55.589 1.4 19 12.8 102200 62
2004-04-26 06:36:53 51°13.901 2°55.583 1.5 19 12.8 102200 62
2004-04-26 06:36:59 51°13.913 2°55.575 1.9 23 12.8 102200 62
2004-04-26 06:37:04 51°13.924 2°55.568 1.9 28 12.8 102200 62
2004-04-26 06:37:09 51°13.934 2°55.56 1.8 24 12.8 102200 62
2004-04-26 06:37:14 51°13.945 2°55.553 1.9 24 12.8 102200 62
2004-04-26 06:37:19 51°13.956 2°55.545 1.8 20 12.8 102200 62
2004-04-26 06:37:25 51°13.968 2°55.536 1.7 21 12.8 102200 62
2004-04-26 06:37:29 51°13.977 2°55.53 1.5 17 12.8 102200 62
2004-04-26 06:37:34 51°13.987 2°55.522 0.9 44 12.8 102200 62
2004-04-26 06:37:39 51°13.998 2°55.515 2.2 53 12.8 102200 62
2004-04-26 06:37:43 51°14.007 2°55.508 1.5 75 12.8 102200 62
2004-04-26 06:37:49 51°14.019 2°55.499 1.6 73 12.8 102200 62
2004-04-26 06:37:54 51°14.03 2°55.491 1.3 65 12.8 102200 62
2004-04-26 06:37:59 51°14.041 2°55.483 0.8 65 12.8 102200 62
2004-04-26 06:38:04 51°14.052 2°55.475 0.7 62 12.8 102200 62
2004-04-26 06:38:09 51°14.062 2°55.467 0.9 51 12.8 102200 62
2004-04-26 06:38:14 51°14.073 2°55.459 1.1 39 12.8 102200 62
2004-04-26 06:38:19 51°14.084 2°55.451 1.6 32 12.8 102200 62
2004-04-26 06:38:24 51°14.095 2°55.443 1.5 31 12.9 102200 62
2004-04-26 06:38:29 51°14.106 2°55.434 1.8 34 12.9 102200 62
2004-04-26 06:38:34 51°14.118 2°55.425 2.2 46 12.9 102200 62
2004-04-26 06:38:39 51°14.13 2°55.416 2.1 37 12.9 102200 62
2004-04-26 06:38:43 51°14.14 2°55.407 2.4 41 12.9 102200 62
2004-04-26 06:38:48 51°14.153 2°55.396 2.3 48 12.9 102200 62
2004-04-26 06:38:54 51°14.168 2°55.382 2.6 33 12.9 102200 62
2004-04-26 06:38:59 51°14.182 2°55.369 2.6 17 12.9 102200 62
2004-04-26 06:39:05 51°14.197 2°55.352 2.5 23 12.9 102200 62
2004-04-26 06:39:09 51°14.208 2°55.34 2.3 25 12.9 102200 62
2004-04-26 06:39:13 51°14.219 2°55.328 2.7 8 12.9 102200 62
2004-04-26 06:39:19 51°14.234 2°55.307 3.1 351 12.9 102200 62
2004-04-26 06:39:24 51°14.247 2°55.29 2.9 354 12.9 102200 62
2004-04-26 06:39:29 51°14.26 2°55.271 3.1 354 12.9 102200 62
2004-04-26 06:39:34 51°14.272 2°55.252 3 356 12.9 102200 62
2004-04-26 06:39:39 51°14.285 2°55.231 3.2 355 12.9 102200 62
2004-04-26 06:39:43 51°14.294 2°55.215 3.6 359 12.9 102200 62
2004-04-26 06:39:49 51°14.308 2°55.188 3.7 348 12.9 102200 62
2004-04-26 06:39:53 51°14.317 2°55.17 3.8 353 12.9 102200 62
2004-04-26 06:39:59 51°14.331 2°55.144 3.7 354 12.9 102200 62
2004-04-26 06:40:03 51°14.34 2°55.126 3.8 357 12.9 102200 62
2004-04-26 06:40:09 51°14.355 2°55.099 4.3 352 12.9 102200 62
2004-04-26 06:40:14 51°14.366 2°55.076 4.2 351 12.9 102200 63
2004-04-26 06:40:19 51°14.377 2°55.052 3.9 348 12.9 102200 63
2004-04-26 06:40:25 51°14.391 2°55.023 3.7 345 12.9 102200 63
2004-04-26 06:40:29 51°14.401 2°55.005 3.5 348 12.9 102200 63
2004-04-26 06:40:34 51°14.413 2°54.982 4.2 353 12.9 102200 63
2004-04-26 06:40:39 51°14.427 2°54.959 3.7 352 12.9 102200 63
2004-04-26 06:40:44 51°14.441 2°54.938 4 360 12.9 102190 63
2004-04-26 06:40:49 51°14.454 2°54.917 4 358 12.9 102190 63
2004-04-26 06:40:54 51°14.469 2°54.895 4 4 12.9 102200 62
2004-04-26 06:40:59 51°14.483 2°54.874 3.5 359 12.9 102200 62
2004-04-26 06:41:05 51°14.5 2°54.849 3.6 4 12.9 102190 63
2004-04-26 06:41:09 51°14.512 2°54.833 3.9 352 12.9 102190 63
2004-04-26 06:41:14 51°14.526 2°54.812 3.1 357 12.9 102200 63
2004-04-26 06:41:19 51°14.541 2°54.792 3.3 3 12.9 102200 63
2004-04-26 06:41:24 51°14.556 2°54.771 3.1 354 12.9 102200 63
2004-04-26 06:41:29 51°14.57 2°54.751 3.2 353 12.9 102200 63
2004-04-26 06:41:33 51°14.582 2°54.734 2.7 348 12.9 102190 62
2004-04-26 06:41:39 51°14.599 2°54.709 2.5 344 12.9 102190 62
2004-04-26 06:41:45 51°14.617 2°54.685 2.2 354 12.9 102190 62
2004-04-26 06:41:49 51°14.629 2°54.669 2.2 358 12.9 102190 62
2004-04-26 06:41:54 51°14.644 2°54.65 2.3 13 12.9 102190 62
2004-04-26 06:41:59 51°14.659 2°54.631 2.6 15 12.9 102190 62
2004-04-26 06:42:03 51°14.672 2°54.617 2.6 14 12.9 102190 62
2004-04-26 06:42:09 51°14.691 2°54.595 2.4 18 12.9 102190 62
2004-04-26 06:42:13 51°14.703 2°54.581 1.8 20 12.9 102200 62
2004-04-26 06:42:18 51°14.72 2°54.563 2.3 26 12.9 102200 62
2004-04-26 06:42:24 51°14.739 2°54.542 2.5 14 12.9 102190 62
2004-04-26 06:42:29 51°14.754 2°54.524 2.7 22 12.9 102190 62
2004-04-26 06:42:37 51°14.78 2°54.495 2.8 10 12.9 102190 62
2004-04-26 06:42:43 51°14.799 2°54.474 2.5 22 12.9 102200 62
2004-04-26 06:42:49 51°14.818 2°54.453 2.1 23 12.9 102200 62
2004-04-26 06:42:54 51°14.835 2°54.435 2.2 26 12.9 102190 62
2004-04-26 06:42:59 51°14.851 2°54.418 2.4 23 12.9 102190 62
2004-04-26 06:43:04 51°14.867 2°54.401 3.2 22 12.9 102190 62
2004-04-26 06:43:09 51°14.883 2°54.383 2.6 19 12.9 102190 62
2004-04-26 06:43:13 51°14.896 2°54.369 2.7 20 12.9 102190 62
2004-04-26 06:43:19 51°14.915 2°54.348 2.7 20 12.9 102190 62
2004-04-26 06:43:25 51°14.934 2°54.327 2.8 22 12.9 102200 62
2004-04-26 06:43:29 51°14.947 2°54.313 3 28 12.9 102200 62
2004-04-26 06:43:34 51°14.964 2°54.297 2.7 26 12.9 102200 63
2004-04-26 06:43:39 51°14.98 2°54.28 2.9 28 12.9 102200 63
2004-04-26 06:43:43 51°14.993 2°54.267 2.7 23 12.9 102200 63
2004-04-26 06:43:49 51°15.012 2°54.247 2.7 23 12.9 102200 63
2004-04-26 06:43:53 51°15.025 2°54.233 2.6 23 12.9 102190 63
2004-04-26 06:43:58 51°15.04 2°54.216 2.3 16 12.9 102190 63
2004-04-26 06:44:04 51°15.059 2°54.194 2.4 16 12.9 102200 64
2004-04-26 06:44:09 51°15.075 2°54.176 2.8 15 12.9 102200 64
2004-04-26 06:44:19 51°15.105 2°54.139 2.9 20 12.9 102200 64
2004-04-26 06:44:24 51°15.121 2°54.12 2.7 20 12.9 102190 64
2004-04-26 06:44:29 51°15.136 2°54.102 2.5 8 12.9 102190 64
2004-04-26 06:44:34 51°15.152 2°54.084 2.5 23 12.9 102200 64
2004-04-26 06:44:39 51°15.168 2°54.066 2.6 18 12.9 102200 64
2004-04-26 06:44:44 51°15.184 2°54.049 2.6 18 12.9 102190 64
2004-04-26 06:44:49 51°15.199 2°54.031 2.5 25 12.9 102190 64
2004-04-26 06:44:53 51°15.212 2°54.017 2.6 25 12.9 102190 64
2004-04-26 06:44:59 51°15.231 2°53.995 2.6 25 12.9 102190 64
2004-04-26 06:45:05 51°15.249 2°53.973 2.4 13 12.9 102190 63
2004-04-26 06:45:09 51°15.262 2°53.958 2.5 14 12.9 102190 63
2004-04-26 06:45:14 51°15.277 2°53.94 2.8 8 12.9 102190 63
2004-04-26 06:45:19 51°15.293 2°53.922 2.8 20 12.9 102190 63
2004-04-26 06:45:25 51°15.312 2°53.9 2.6 15 12.9 102200 63
2004-04-26 06:45:29 51°15.324 2°53.886 2.6 14 12.9 102200 63
2004-04-26 06:45:33 51°15.337 2°53.872 3 12 12.9 102200 63
2004-04-26 06:45:39 51°15.356 2°53.85 2.9 18 12.9 102200 63
2004-04-26 06:45:45 51°15.375 2°53.828 2.5 17 12.9 102200 63
2004-04-26 06:45:49 51°15.387 2°53.814 2.6 11 12.9 102200 63
2004-04-26 06:45:53 51°15.399 2°53.799 2.8 9 12.9 102200 63
2004-04-26 06:45:58 51°15.415 2°53.781 2.7 12 12.9 102200 63
2004-04-26 06:46:03 51°15.43 2°53.763 2.8 16 12.9 102190 63
2004-04-26 06:46:09 51°15.449 2°53.741 2.5 9 12.9 102190 63
2004-04-26 06:46:14 51°15.465 2°53.723 2.3 7 12.9 102200 63
2004-04-26 06:46:19 51°15.481 2°53.705 2.6 14 12.9 102200 63
2004-04-26 06:46:24 51°15.497 2°53.687 2.9 8 12.9 102190 63
2004-04-26 06:46:29 51°15.513 2°53.67 2.6 16 12.9 102190 63
2004-04-26 06:46:34 51°15.529 2°53.652 2.7 14 12.9 102200 63
2004-04-26 06:46:39 51°15.545 2°53.635 2.7 22 12.9 102200 63
2004-04-26 06:46:45 51°15.564 2°53.615 2.6 19 12.9 102190 64
2004-04-26 06:46:49 51°15.577 2°53.601 2.9 16 12.9 102190 64
2004-04-26 06:46:54 51°15.594 2°53.584 3.2 14 12.9 102190 63
2004-04-26 06:46:59 51°15.61 2°53.567 3.1 17 12.9 102190 63
2004-04-26 06:47:03 51°15.623 2°53.553 3.1 20 12.9 102190 63
2004-04-26 06:47:09 51°15.642 2°53.533 2.9 19 12.9 102190 63
2004-04-26 06:47:13 51°15.656 2°53.519 2.8 25 12.9 102200 63
2004-04-26 06:47:19 51°15.675 2°53.498 2.9 23 12.9 102200 63
2004-04-26 06:47:25 51°15.695 2°53.478 2.7 25 12.9 102200 64
2004-04-26 06:47:29 51°15.708 2°53.465 2.7 17 12.9 102200 64
2004-04-26 06:47:34 51°15.724 2°53.447 2.8 18 12.9 102200 63
2004-04-26 06:47:39 51°15.74 2°53.43 2.9 25 12.9 102200 63
2004-04-26 06:47:45 51°15.76 2°53.41 2.9 23 12.9 102200 63
2004-04-26 06:47:49 51°15.773 2°53.397 2.7 32 12.9 102200 63
2004-04-26 06:47:53 51°15.786 2°53.385 2.9 30 12.9 102200 63
2004-04-26 06:47:59 51°15.807 2°53.366 2.7 34 12.9 102200 63
2004-04-26 06:48:03 51°15.82 2°53.354 2.7 34 12.9 102200 64
2004-04-26 06:48:09 51°15.84 2°53.336 2.6 31 12.9 102200 64
2004-04-26 06:48:14 51°15.858 2°53.322 2.9 34 12.9 102190 63
2004-04-26 06:48:19 51°15.875 2°53.307 3 36 12.9 102190 63
2004-04-26 06:48:25 51°15.896 2°53.291 2.9 35 12.9 102200 63
2004-04-26 06:48:30 51°15.914 2°53.277 3.7 37 12.9 102200 63
2004-04-26 06:48:33 51°15.924 2°53.269 3.5 34 12.9 102190 63
2004-04-26 06:48:38 51°15.942 2°53.256 3.7 29 12.9 102190 63
2004-04-26 06:48:44 51°15.963 2°53.24 3.4 30 12.9 102200 64
2004-04-26 06:48:49 51°15.981 2°53.227 3.3 32 12.9 102200 64
2004-04-26 06:48:53 51°15.995 2°53.216 3.7 25 12.8 102200 64
2004-04-26 06:48:59 51°16.016 2°53.2 3.9 22 12.8 102200 64
2004-04-26 06:49:03 51°16.03 2°53.19 4 24 12.9 102200 65
2004-04-26 06:49:09 51°16.051 2°53.174 3.9 21 12.9 102200 65
2004-04-26 06:49:14 51°16.068 2°53.16 4.1 23 12.8 102190 65
2004-04-26 06:49:19 51°16.085 2°53.146 3.8 29 12.8 102190 65
2004-04-26 06:49:24 51°16.103 2°53.133 3.8 25 12.8 102190 66
2004-04-26 06:49:29 51°16.12 2°53.12 4 29 12.8 102190 66
2004-04-26 06:49:34 51°16.138 2°53.107 3.6 25 12.9 102200 67
2004-04-26 06:49:39 51°16.155 2°53.093 4 27 12.9 102200 67
2004-04-26 06:49:43 51°16.169 2°53.082 3.8 26 12.8 102190 67
2004-04-26 06:49:49 51°16.19 2°53.066 4.1 26 12.8 102190 67
2004-04-26 06:49:54 51°16.207 2°53.052 4 25 12.8 102190 67
2004-04-26 06:49:59 51°16.225 2°53.039 4.1 29 12.8 102190 67
2004-04-26 06:50:04 51°16.242 2°53.025 3.9 28 12.8 102200 67
2004-04-26 06:50:09 51°16.26 2°53.012 4.2 27 12.8 102200 67
2004-04-26 06:50:13 51°16.274 2°53.001 4.3 28 12.8 102200 68
2004-04-26 06:50:19 51°16.295 2°52.984 4.4 26 12.8 102200 68
2004-04-26 06:50:25 51°16.316 2°52.968 4.1 26 12.8 102190 68
2004-04-26 06:50:29 51°16.33 2°52.957 4.2 25 12.8 102190 68
2004-04-26 06:50:34 51°16.348 2°52.943 4.2 27 12.8 102200 68
2004-04-26 06:50:39 51°16.366 2°52.93 4.2 25 12.8 102200 68
2004-04-26 06:50:44 51°16.384 2°52.916 4.2 26 12.7 102200 68
2004-04-26 06:50:48 51°16.398 2°52.906 4.2 27 12.7 102200 68
2004-04-26 06:50:53 51°16.416 2°52.893 4.3 28 12.7 102200 68
2004-04-26 06:50:59 51°16.437 2°52.877 4.1 25 12.7 102200 68
2004-04-26 06:51:05 51°16.458 2°52.86 4.2 25 12.7 102200 68
2004-04-26 06:51:09 51°16.472 2°52.85 4.3 27 12.7 102200 68
2004-04-26 06:51:14 51°16.489 2°52.836 4.4 27 12.7 102200 68
2004-04-26 06:51:19 51°16.507 2°52.823 4.6 26 12.7 102200 68
2004-04-26 06:51:25 51°16.528 2°52.806 4.3 26 12.7 102200 68
2004-04-26 06:51:29 51°16.542 2°52.796 4.5 25 12.7 102200 68
2004-04-26 06:51:34 51°16.559 2°52.782 4.4 25 12.6 102200 68
2004-04-26 06:51:39 51°16.577 2°52.769 4.6 23 12.6 102200 68
2004-04-26 06:51:43 51°16.591 2°52.758 4.3 24 12.6 102200 68
2004-04-26 06:51:49 51°16.612 2°52.742 4.5 27 12.6 102200 68
2004-04-26 06:51:53 51°16.627 2°52.732 4.2 27 12.6 102200 68
2004-04-26 06:51:59 51°16.648 2°52.716 4.7 25 12.6 102200 68
2004-04-26 06:52:04 51°16.666 2°52.703 4.5 23 12.6 102200 69
2004-04-26 06:52:09 51°16.683 2°52.689 4.3 23 12.6 102200 69
2004-04-26 06:52:14 51°16.701 2°52.676 4.4 24 12.6 102200 69
2004-04-26 06:52:19 51°16.719 2°52.663 4.2 25 12.6 102200 69
2004-04-26 06:52:25 51°16.74 2°52.647 4.3 27 12.6 102200 69
2004-04-26 06:52:29 51°16.755 2°52.636 4.5 26 12.6 102200 69
2004-04-26 06:52:34 51°16.773 2°52.623 4.6 25 12.6 102200 69
2004-04-26 06:52:39 51°16.79 2°52.61 4.8 24 12.6 102200 69
2004-04-26 06:52:41 51°16.797 2°52.604 4.7 22 12.6 102200 69
2004-04-26 06:52:49 51°16.825 2°52.583 4.9 24 12.6 102200 69
2004-04-26 06:52:54 51°16.843 2°52.57 4.9 24 12.5 102200 69
2004-04-26 06:52:58 51°16.857 2°52.559 4.6 27 12.5 102200 69
2004-04-26 06:53:03 51°16.875 2°52.546 4.7 24 12.6 102200 69
2004-04-26 06:53:09 51°16.896 2°52.53 4.5 22 12.6 102200 69
2004-04-26 06:53:13 51°16.91 2°52.519 4.7 22 12.6 102200 70
2004-04-26 06:53:19 51°16.931 2°52.502 4.8 22 12.6 102200 70
2004-04-26 06:53:25 51°16.952 2°52.486 4.9 24 12.5 102200 70
2004-04-26 06:53:29 51°16.966 2°52.475 4.8 26 12.5 102200 70
2004-04-26 06:53:34 51°16.984 2°52.462 4.9 24 12.5 102200 70
2004-04-26 06:53:39 51°17.001 2°52.449 4.9 22 12.5 102200 70
2004-04-26 06:53:45 51°17.022 2°52.433 4.5 26 12.5 102200 70
2004-04-26 06:53:49 51°17.036 2°52.422 4.7 24 12.5 102200 70
2004-04-26 06:53:54 51°17.054 2°52.408 4.7 23 12.5 102200 70
2004-04-26 06:53:59 51°17.071 2°52.394 4.7 26 12.5 102200 70
2004-04-26 06:54:05 51°17.093 2°52.378 4.8 25 12.5 102200 70
2004-04-26 06:54:09 51°17.107 2°52.367 4.6 26 12.5 102200 70
2004-04-26 06:54:13 51°17.121 2°52.356 5.1 27 12.5 102200 70
2004-04-26 06:54:19 51°17.142 2°52.34 4.8 27 12.5 102200 70
2004-04-26 06:54:25 51°17.163 2°52.323 4.9 29 12.5 102200 70
2004-04-26 06:54:29 51°17.177 2°52.312 4.7 26 12.5 102200 70
2004-04-26 06:54:33 51°17.191 2°52.301 4.8 26 12.5 102200 70
2004-04-26 06:54:39 51°17.213 2°52.284 4.5 26 12.5 102200 70
2004-04-26 06:54:45 51°17.233 2°52.267 4.5 26 12.4 102200 70
2004-04-26 06:54:49 51°17.247 2°52.256 4.4 28 12.4 102200 70
2004-04-26 06:54:54 51°17.265 2°52.242 4.6 28 12.4 102200 70
2004-04-26 06:54:59 51°17.283 2°52.228 4.8 30 12.4 102200 70
2004-04-26 06:55:03 51°17.297 2°52.217 4.6 28 12.4 102200 70
2004-04-26 06:55:09 51°17.318 2°52.2 4.8 30 12.4 102200 70
2004-04-26 06:55:13 51°17.332 2°52.19 4.5 26 12.4 102200 70
2004-04-26 06:55:19 51°17.354 2°52.173 4.5 29 12.4 102200 70
2004-04-26 06:55:25 51°17.375 2°52.156 4.7 28 12.3 102200 70
2004-04-26 06:55:29 51°17.39 2°52.145 4.5 26 12.3 102200 70
2004-04-26 06:55:33 51°17.404 2°52.134 4.3 31 12.3 102200 70
2004-04-26 06:55:39 51°17.424 2°52.116 3.9 26 12.3 102200 70
2004-04-26 06:55:44 51°17.441 2°52.099 3.8 26 12.3 102200 70
2004-04-26 06:55:49 51°17.458 2°52.082 4.1 20 12.3 102200 70
2004-04-26 06:55:53 51°17.471 2°52.067 3.7 23 12.3 102200 70
2004-04-26 06:55:59 51°17.489 2°52.044 3.5 18 12.3 102200 70
2004-04-26 06:56:05 51°17.506 2°52.019 3.7 17 12.3 102200 70
2004-04-26 06:56:09 51°17.517 2°52.001 3.5 11 12.3 102200 70
2004-04-26 06:56:12 51°17.525 2°51.987 3.3 9 12.2 102200 70
2004-04-26 06:56:19 51°17.543 2°51.954 3.3 6 12.2 102200 70
2004-04-26 06:56:25 51°17.558 2°51.925 3.3 10 12.2 102200 70
2004-04-26 06:56:29 51°17.568 2°51.906 3.8 9 12.2 102200 70
2004-04-26 06:56:33 51°17.578 2°51.886 3.4 7 12.2 102200 70
2004-04-26 06:56:39 51°17.593 2°51.857 3.6 7 12.2 102200 70
2004-04-26 06:56:43 51°17.602 2°51.837 3.5 8 12.2 102210 70
2004-04-26 06:56:49 51°17.617 2°51.807 3.4 8 12.2 102210 70
2004-04-26 06:56:52 51°17.624 2°51.793 3.5 10 12.2 102210 70
2004-04-26 06:56:58 51°17.639 2°51.763 3.5 10 12.2 102210 70
2004-04-26 06:57:02 51°17.649 2°51.744 3.6 10 12.2 102210 70
2004-04-26 06:57:08 51°17.664 2°51.715 3.3 7 12.2 102210 70
2004-04-26 06:57:12 51°17.673 2°51.695 3.4 9 12.2 102200 70
2004-04-26 06:57:18 51°17.688 2°51.666 3.5 6 12.2 102200 70
2004-04-26 06:57:22 51°17.698 2°51.647 3.5 8 12.1 102210 71
2004-04-26 06:57:29 51°17.715 2°51.612 3.4 8 12.1 102210 71
2004-04-26 06:57:33 51°17.724 2°51.593 3.2 7 12.2 102200 71
2004-04-26 06:57:38 51°17.737 2°51.568 3.4 11 12.2 102200 71
2004-04-26 06:57:44 51°17.752 2°51.54 3.2 8 12.3 102210 71
2004-04-26 06:57:48 51°17.762 2°51.52 3.3 7 12.3 102210 71
2004-04-26 06:57:52 51°17.772 2°51.501 3.3 5 12.1 102210 71
2004-04-26 06:57:58 51°17.786 2°51.471 3.3 6 12.1 102210 71
2004-04-26 06:58:02 51°17.796 2°51.452 3.7 8 12.1 102210 71
2004-04-26 06:58:08 51°17.811 2°51.423 3.8 8 12.1 102210 71
2004-04-26 06:58:12 51°17.821 2°51.403 3.5 5 12.1 102210 71
2004-04-26 06:58:18 51°17.835 2°51.374 3.4 5 12.1 102210 71
2004-04-26 06:58:24 51°17.85 2°51.345 3.6 6 12.1 102210 71
2004-04-26 06:58:28 51°17.86 2°51.325 3.6 8 12.1 102210 71
2004-04-26 06:58:32 51°17.87 2°51.305 3.6 8 12.1 102210 71
2004-04-26 06:58:38 51°17.885 2°51.276 3.5 7 12.1 102210 71
2004-04-26 06:58:42 51°17.895 2°51.257 3.5 8 12.1 102210 71
2004-04-26 06:58:48 51°17.91 2°51.228 3.6 9 12.1 102210 71
2004-04-26 06:58:53 51°17.923 2°51.204 3.5 3 12.1 102210 71
2004-04-26 06:58:58 51°17.935 2°51.179 3.4 4 12.1 102210 71
2004-04-26 06:59:04 51°17.95 2°51.15 3.6 5 12.1 102210 71
2004-04-26 06:59:08 51°17.96 2°51.13 3.4 4 12.1 102210 71
2004-04-26 06:59:13 51°17.972 2°51.105 3.5 3 12.1 102210 71
2004-04-26 06:59:18 51°17.984 2°51.081 3.6 4 12.1 102210 71
2004-04-26 06:59:21 51°17.992 2°51.066 3.4 1 12.1 102210 71
2004-04-26 06:59:28 51°18.009 2°51.032 3.5 1 12.1 102210 71
2004-04-26 06:59:33 51°18.022 2°51.008 3.3 2 12.1 102210 71
2004-04-26 06:59:38 51°18.034 2°50.983 3.9 6 12.1 102210 71
2004-04-26 06:59:41 51°18.042 2°50.968 3.5 3 12.1 102210 71
2004-04-26 06:59:48 51°18.058 2°50.933 3.5 359 12.1 102210 71
2004-04-26 06:59:52 51°18.067 2°50.912 3.8 360 12.1 102210 71
2004-04-26 06:59:58 51°18.08 2°50.881 3.6 352 12.1 102210 71
2004-04-26 07:00:02 51°18.088 2°50.859 3.5 355 12.1 102210 71
2004-04-26 07:00:08 51°18.1 2°50.827 3.4 355 12.1 102210 71
2004-04-26 07:00:13 51°18.11 2°50.801 3.3 353 12.1 102210 71
2004-04-26 07:00:17 51°18.118 2°50.779 3.9 354 12.1 102210 71
2004-04-26 07:00:22 51°18.128 2°50.752 3.6 357 12.1 102210 71
2004-04-26 07:00:28 51°18.14 2°50.72 3.8 351 12.1 102210 71
2004-04-26 07:00:33 51°18.15 2°50.693 3.7 353 12.1 102210 71
2004-04-26 07:00:42 51°18.168 2°50.644 4 357 12.1 102210 71
2004-04-26 07:00:47 51°18.178 2°50.617 3.5 351 12.1 102210 71
2004-04-26 07:00:53 51°18.19 2°50.585 3.4 356 12.1 102200 71
2004-04-26 07:00:58 51°18.2 2°50.558 3.5 350 12.1 102200 71
2004-04-26 07:01:03 51°18.21 2°50.531 3.8 354 12.1 102210 71
2004-04-26 07:01:08 51°18.22 2°50.504 3.6 353 12.1 102210 71
2004-04-26 07:01:13 51°18.23 2°50.478 3.7 352 12.1 102210 71
2004-04-26 07:01:18 51°18.241 2°50.451 3.3 353 12.1 102210 71
2004-04-26 07:01:22 51°18.249 2°50.43 3.7 355 12.1 102210 71
2004-04-26 07:01:29 51°18.263 2°50.392 3.7 356 12.1 102210 71
2004-04-26 07:01:33 51°18.271 2°50.371 3.6 353 12.1 102210 72
2004-04-26 07:01:38 51°18.281 2°50.344 3.5 354 12.1 102210 72
2004-04-26 07:01:43 51°18.291 2°50.317 3.5 353 12.1 102210 72
2004-04-26 07:01:47 51°18.299 2°50.296 3.6 356 12.1 102210 72
2004-04-26 07:01:52 51°18.309 2°50.269 3.6 350 12.1 102210 72
2004-04-26 07:01:58 51°18.321 2°50.237 3.6 354 12.1 102210 72
2004-04-26 07:02:03 51°18.331 2°50.211 3.9 352 12.1 102210 72
2004-04-26 07:02:09 51°18.342 2°50.179 3.6 350 12.1 102210 72
2004-04-26 07:02:13 51°18.35 2°50.157 3.6 350 12.1 102210 72
2004-04-26 07:02:18 51°18.36 2°50.13 3.9 351 12.1 102210 72
2004-04-26 07:02:23 51°18.37 2°50.104 3.7 352 12.1 102210 72
2004-04-26 07:02:27 51°18.378 2°50.083 3.8 355 12.1 102210 72
2004-04-26 07:02:33 51°18.39 2°50.051 3.7 351 12.1 102210 72
2004-04-26 07:02:37 51°18.399 2°50.029 3.6 356 12.1 102210 72
2004-04-26 07:02:43 51°18.411 2°49.997 3.7 354 12.1 102210 72
2004-04-26 07:02:47 51°18.419 2°49.976 3.8 355 12.1 102210 72
2004-04-26 07:02:53 51°18.431 2°49.944 3.9 352 12.1 102210 72
2004-04-26 07:02:58 51°18.442 2°49.917 3.8 356 12.1 102210 72
2004-04-26 07:03:03 51°18.452 2°49.89 3.6 355 12.1 102210 72
2004-04-26 07:03:07 51°18.46 2°49.869 3.8 353 12.1 102210 72
2004-04-26 07:03:13 51°18.473 2°49.837 4 355 12.1 102210 72
2004-04-26 07:03:23 51°18.493 2°49.784 4.1 356 12.1 102210 72
2004-04-26 07:03:27 51°18.501 2°49.763 4.1 355 12.1 102210 72
2004-04-26 07:03:33 51°18.513 2°49.73 3.9 352 12.1 102210 72
2004-04-26 07:03:38 51°18.523 2°49.703 3.7 353 12.1 102210 72
2004-04-26 07:03:43 51°18.533 2°49.676 3.9 353 12.1 102210 72
2004-04-26 07:03:47 51°18.541 2°49.655 3.9 355 12.1 102210 72
2004-04-26 07:03:53 51°18.553 2°49.623 4 353 12.1 102210 72
2004-04-26 07:03:58 51°18.563 2°49.596 3.8 355 12.1 102210 72
2004-04-26 07:04:02 51°18.571 2°49.575 4 354 12.1 102210 72
2004-04-26 07:04:07 51°18.582 2°49.548 4.1 355 12.1 102210 72
2004-04-26 07:04:13 51°18.594 2°49.516 4 352 12.1 102210 72
2004-04-26 07:04:18 51°18.604 2°49.489 3.9 353 12.1 102210 72
2004-04-26 07:04:23 51°18.614 2°49.463 3.8 351 12.1 102210 72
2004-04-26 07:04:27 51°18.623 2°49.441 3.9 351 12.1 102210 72
2004-04-26 07:04:33 51°18.635 2°49.409 3.9 350 12.1 102210 72
2004-04-26 07:04:38 51°18.645 2°49.382 3.9 357 12.1 102210 72
2004-04-26 07:04:43 51°18.655 2°49.355 3.8 352 12.1 102210 72
2004-04-26 07:04:48 51°18.666 2°49.329 3.7 349 12.1 102210 72
2004-04-26 07:04:53 51°18.676 2°49.302 3.9 352 12.1 102210 73
2004-04-26 07:04:57 51°18.684 2°49.281 4.2 354 12.1 102210 73
2004-04-26 07:05:03 51°18.696 2°49.249 4.2 353 12.1 102210 73
2004-04-26 07:05:09 51°18.709 2°49.216 3.9 352 12.1 102210 73
2004-04-26 07:05:13 51°18.717 2°49.195 4.2 355 12.1 102210 73
2004-04-26 07:05:17 51°18.726 2°49.173 4.1 353 12.1 102210 73
2004-04-26 07:05:22 51°18.736 2°49.146 3.9 354 12.1 102210 73
2004-04-26 07:05:27 51°18.746 2°49.119 4 351 12.1 102210 73
2004-04-26 07:05:33 51°18.759 2°49.087 4 351 12.1 102210 73
2004-04-26 07:05:38 51°18.769 2°49.06 3.9 350 12.1 102210 73
2004-04-26 07:05:43 51°18.779 2°49.033 3.8 350 12.1 102210 73
2004-04-26 07:05:47 51°18.787 2°49.011 4.2 348 12.1 102210 73
2004-04-26 07:05:53 51°18.8 2°48.979 4 351 12.1 102210 73
2004-04-26 07:05:58 51°18.81 2°48.952 4.2 352 12.1 102210 73
2004-04-26 07:06:03 51°18.821 2°48.925 4.1 348 12.1 102210 73
2004-04-26 07:06:09 51°18.833 2°48.893 4.1 352 12.1 102210 73
2004-04-26 07:06:13 51°18.841 2°48.872 4.2 348 12.1 102210 73
2004-04-26 07:06:17 51°18.85 2°48.85 4.5 351 12.1 102210 73
2004-04-26 07:06:23 51°18.862 2°48.818 4.1 351 12.1 102210 73
2004-04-26 07:06:27 51°18.871 2°48.796 4.3 349 12.1 102210 73
2004-04-26 07:06:33 51°18.883 2°48.764 4.2 349 12.1 102210 73
2004-04-26 07:06:43 51°18.904 2°48.71 4.4 351 12.1 102210 73
2004-04-26 07:06:47 51°18.912 2°48.689 4.3 350 12.1 102210 73
2004-04-26 07:06:53 51°18.925 2°48.657 3.9 350 12.1 102210 73
2004-04-26 07:06:57 51°18.933 2°48.635 4.2 351 12.1 102210 73
2004-04-26 07:07:03 51°18.946 2°48.603 4.2 349 12.1 102210 73
2004-04-26 07:07:07 51°18.954 2°48.582 4.1 348 12.1 102210 73
2004-04-26 07:07:13 51°18.967 2°48.55 3.9 349 12.1 102210 73
2004-04-26 07:07:18 51°18.977 2°48.523 4.5 350 12.1 102210 73
2004-04-26 07:07:23 51°18.987 2°48.497 4.2 349 12.1 102210 74
2004-04-26 07:07:28 51°18.998 2°48.47 3.8 349 12.1 102210 74
2004-04-26 07:07:33 51°19.009 2°48.444 4 349 12.1 102210 74
2004-04-26 07:07:38 51°19.019 2°48.417 4.1 347 12.1 102210 74
2004-04-26 07:07:42 51°19.027 2°48.396 3.9 348 12.1 102210 74
2004-04-26 07:07:49 51°19.042 2°48.358 3.9 347 12.1 102210 74
2004-04-26 07:07:51 51°19.046 2°48.347 4.1 348 12.1 102210 74
2004-04-26 07:07:58 51°19.061 2°48.31 3.9 349 12.1 102210 74
2004-04-26 07:08:02 51°19.069 2°48.289 4 346 12.1 102210 74
2004-04-26 07:08:09 51°19.084 2°48.251 3.8 349 12.1 102210 74
2004-04-26 07:08:13 51°19.093 2°48.23 3.9 347 12.1 102210 74
2004-04-26 07:08:18 51°19.103 2°48.203 4 347 12.1 102210 74
2004-04-26 07:08:23 51°19.114 2°48.177 4.1 350 12.1 102210 74
2004-04-26 07:08:29 51°19.126 2°48.144 4.1 346 12.1 102210 74
2004-04-26 07:08:33 51°19.135 2°48.123 4.2 348 12.1 102210 74
2004-04-26 07:08:38 51°19.145 2°48.096 3.8 348 12.1 102210 74
2004-04-26 07:08:43 51°19.156 2°48.069 4 348 12 102210 74
2004-04-26 07:08:47 51°19.164 2°48.047 4 350 12 102210 74
2004-04-26 07:08:53 51°19.177 2°48.015 3.8 347 12 102210 74
2004-04-26 07:08:58 51°19.187 2°47.988 4 347 12 102210 74
2004-04-26 07:09:03 51°19.198 2°47.961 3.8 349 12 102210 74
2004-04-26 07:09:07 51°19.206 2°47.94 4 348 12 102210 74
2004-04-26 07:09:13 51°19.219 2°47.908 4 348 12 102210 74
2004-04-26 07:09:18 51°19.23 2°47.881 3.9 349 12 102210 74
2004-04-26 07:09:23 51°19.241 2°47.854 3.8 349 12 102210 74
2004-04-26 07:09:26 51°19.247 2°47.838 4 347 12 102210 74
2004-04-26 07:09:33 51°19.262 2°47.801 4 351 12 102210 74
2004-04-26 07:09:37 51°19.271 2°47.779 3.9 351 12 102210 74
2004-04-26 07:09:43 51°19.284 2°47.747 3.8 350 12 102210 74
2004-04-26 07:09:49 51°19.297 2°47.715 3.9 349 12 102210 74
2004-04-26 07:09:53 51°19.305 2°47.694 3.9 350 12 102210 74
2004-04-26 07:09:57 51°19.314 2°47.672 3.9 349 12 102210 74
2004-04-26 07:10:03 51°19.326 2°47.64 3.8 350 12 102210 74
2004-04-26 07:10:05 51°19.331 2°47.63 4 349 12 102210 74
2004-04-26 07:10:13 51°19.348 2°47.587 4.1 350 12 102210 75
2004-04-26 07:10:18 51°19.359 2°47.56 3.7 350 12 102210 75
2004-04-26 07:10:22 51°19.368 2°47.539 3.7 349 12 102210 75
2004-04-26 07:10:27 51°19.379 2°47.513 3.9 351 12 102210 75
2004-04-26 07:10:33 51°19.392 2°47.481 4.1 350 12 102210 75
2004-04-26 07:10:38 51°19.403 2°47.454 4 352 12 102210 75
2004-04-26 07:10:42 51°19.412 2°47.433 3.9 350 12 102210 75
2004-04-26 07:10:49 51°19.427 2°47.396 4.1 351 12 102210 75
2004-04-26 07:10:53 51°19.435 2°47.374 4 350 12 102210 75
2004-04-26 07:10:58 51°19.446 2°47.348 4 350 12 102210 75
2004-04-26 07:11:02 51°19.455 2°47.327 4.2 351 12 102210 75
2004-04-26 07:11:07 51°19.466 2°47.3 4.2 351 12 102210 75
2004-04-26 07:11:13 51°19.479 2°47.268 4.3 350 12 102210 75
2004-04-26 07:11:18 51°19.488 2°47.241 4.4 350 12 102210 75
2004-04-26 07:11:21 51°19.494 2°47.225 4.4 348 12 102210 75
2004-04-26 07:11:27 51°19.506 2°47.193 4.2 348 12 102210 75
2004-04-26 07:11:33 51°19.518 2°47.161 4.1 349 12 102210 75
2004-04-26 07:11:37 51°19.527 2°47.14 4.3 352 12 102210 75
2004-04-26 07:11:43 51°19.539 2°47.108 4.4 352 12 102210 75
2004-04-26 07:11:47 51°19.547 2°47.088 4.1 350 12 102210 75
2004-04-26 07:11:53 51°19.559 2°47.056 4.1 351 12 102210 75
2004-04-26 07:11:57 51°19.568 2°47.035 4.3 350 12 102210 75
2004-04-26 07:12:03 51°19.58 2°47.004 4.6 352 12 102210 76
2004-04-26 07:12:09 51°19.592 2°46.972 4.3 351 12 102210 76
2004-04-26 07:12:13 51°19.6 2°46.951 4.6 351 12 102210 76
2004-04-26 07:12:18 51°19.61 2°46.925 4.4 347 12 102210 76
2004-04-26 07:12:23 51°19.62 2°46.899 4.3 347 12 102210 76
2004-04-26 07:12:26 51°19.626 2°46.883 4.5 349 12 102210 76
2004-04-26 07:12:33 51°19.64 2°46.846 4.5 350 12 102210 76
2004-04-26 07:12:38 51°19.651 2°46.82 4.6 351 12 102210 76
2004-04-26 07:12:43 51°19.661 2°46.794 4.4 348 12 102210 76
2004-04-26 07:12:47 51°19.669 2°46.773 4.7 353 12 102210 76
2004-04-26 07:12:53 51°19.681 2°46.742 4.7 351 11.9 102210 76
2004-04-26 07:12:57 51°19.689 2°46.721 4.8 350 11.9 102210 76
2004-04-26 07:13:02 51°19.699 2°46.694 4.5 349 11.9 102210 77
2004-04-26 07:13:07 51°19.709 2°46.668 4.5 349 11.9 102210 77
2004-04-26 07:13:13 51°19.721 2°46.637 4.4 350 11.9 102210 77
2004-04-26 07:13:18 51°19.731 2°46.61 4.3 349 11.9 102210 77
2004-04-26 07:13:23 51°19.741 2°46.584 4.1 348 11.9 102210 77
2004-04-26 07:13:27 51°19.749 2°46.563 4.5 348 11.9 102210 77
2004-04-26 07:13:33 51°19.761 2°46.531 4.5 347 11.9 102210 77
2004-04-26 07:13:38 51°19.771 2°46.505 4.3 346 11.9 102210 77
2004-04-26 07:13:41 51°19.777 2°46.488 4.7 351 11.9 102210 77
2004-04-26 07:13:49 51°19.793 2°46.446 4.3 346 11.9 102210 77
2004-04-26 07:13:53 51°19.801 2°46.425 4.4 349 11.9 102210 77
2004-04-26 07:13:57 51°19.809 2°46.404 4.2 349 11.9 102210 77
2004-04-26 07:14:03 51°19.821 2°46.372 4.4 344 11.9 102210 77
2004-04-26 07:14:07 51°19.83 2°46.351 4.4 344 11.9 102210 77
2004-04-26 07:14:13 51°19.842 2°46.32 4.3 352 11.9 102210 77
2004-04-26 07:14:17 51°19.85 2°46.299 4.5 345 11.9 102210 77
2004-04-26 07:14:22 51°19.86 2°46.272 4.3 344 11.9 102210 77
2004-04-26 07:14:26 51°19.869 2°46.251 4 343 11.9 102210 77
2004-04-26 07:14:33 51°19.883 2°46.214 4.4 344 11.9 102210 77
2004-04-26 07:14:38 51°19.893 2°46.187 3.9 340 11.9 102210 77
2004-04-26 07:14:42 51°19.901 2°46.166 4 338 11.9 102210 77
2004-04-26 07:14:47 51°19.911 2°46.139 4.4 333 11.9 102210 77
2004-04-26 07:14:53 51°19.919 2°46.105 4.8 335 11.9 102210 77
2004-04-26 07:14:58 51°19.926 2°46.076 4.8 332 11.9 102210 77
2004-04-26 07:15:03 51°19.932 2°46.047 5.2 330 11.9 102210 77
2004-04-26 07:15:07 51°19.935 2°46.023 5 333 11.9 102210 77
2004-04-26 07:15:13 51°19.941 2°45.987 5.1 332 11.9 102210 77
2004-04-26 07:15:18 51°19.945 2°45.956 5.1 330 11.9 102210 77
2004-04-26 07:15:23 51°19.949 2°45.926 5.3 332 11.9 102210 77
2004-04-26 07:15:27 51°19.952 2°45.902 5.3 330 11.9 102210 77
2004-04-26 07:15:33 51°19.957 2°45.865 5.6 331 11.9 102210 77
2004-04-26 07:15:37 51°19.96 2°45.841 5.3 334 11.9 102210 77
2004-04-26 07:15:42 51°19.964 2°45.811 5.5 332 11.9 102200 77
2004-04-26 07:15:46 51°19.967 2°45.786 5.4 331 11.9 102200 77
2004-04-26 07:15:52 51°19.972 2°45.75 5.6 333 11.9 102210 76
2004-04-26 07:15:57 51°19.976 2°45.719 5.4 333 11.9 102210 76
2004-04-26 07:16:02 51°19.98 2°45.689 5.1 336 11.9 102200 76
2004-04-26 07:16:07 51°19.985 2°45.659 5.3 335 11.9 102200 76
2004-04-26 07:16:12 51°19.989 2°45.629 5.3 333 11.9 102200 76
2004-04-26 07:16:17 51°19.993 2°45.599 5.5 334 11.9 102200 76
2004-04-26 07:16:22 51°19.997 2°45.569 5.4 337 11.9 102200 76
2004-04-26 07:16:27 51°20.001 2°45.539 5.3 333 11.9 102200 76
2004-04-26 07:16:33 51°20.006 2°45.503 5.8 337 11.9 102210 76
2004-04-26 07:16:37 51°20.01 2°45.479 5.5 337 11.9 102210 76
2004-04-26 07:16:42 51°20.014 2°45.449 5.3 336 11.9 102200 76
2004-04-26 07:16:48 51°20.02 2°45.413 5.5 338 11.9 102200 76
2004-04-26 07:16:52 51°20.023 2°45.389 5.4 332 11.9 102210 76
2004-04-26 07:16:56 51°20.026 2°45.365 5.3 339 11.9 102210 76
2004-04-26 07:17:02 51°20.031 2°45.33 5.8 339 11.9 102210 76
2004-04-26 07:17:07 51°20.036 2°45.3 5.3 337 11.9 102210 76
2004-04-26 07:17:13 51°20.041 2°45.264 5.3 338 11.9 102200 76
2004-04-26 07:17:17 51°20.045 2°45.241 5.3 341 11.9 102200 76
2004-04-26 07:17:22 51°20.049 2°45.211 5.4 341 11.9 102210 76
2004-04-26 07:17:27 51°20.053 2°45.181 6 336 11.9 102210 76
2004-04-26 07:17:33 51°20.058 2°45.145 5.4 338 11.9 102200 76
2004-04-26 07:17:38 51°20.063 2°45.116 5.6 340 11.9 102200 76
2004-04-26 07:17:41 51°20.065 2°45.098 5.7 343 11.9 102210 76
2004-04-26 07:17:47 51°20.071 2°45.062 5.2 340 11.9 102210 76
2004-04-26 07:17:53 51°20.077 2°45.027 5.2 336 11.9 102200 76
2004-04-26 07:17:57 51°20.081 2°45.003 5.5 341 11.9 102200 76
2004-04-26 07:18:02 51°20.085 2°44.974 5.5 340 11.9 102200 76
2004-04-26 07:18:07 51°20.09 2°44.944 5.2 339 11.9 102200 76
2004-04-26 07:18:13 51°20.095 2°44.908 5.1 341 11.9 102210 75
2004-04-26 07:18:23 51°20.104 2°44.849 5.2 336 11.9 102210 75
2004-04-26 07:18:27 51°20.107 2°44.825 5.2 340 11.9 102210 75
2004-04-26 07:18:33 51°20.113 2°44.789 5.4 335 11.9 102200 75
2004-04-26 07:18:37 51°20.117 2°44.765 5.3 337 11.9 102200 75
2004-04-26 07:18:42 51°20.122 2°44.736 5 338 11.9 102200 75
2004-04-26 07:18:47 51°20.126 2°44.706 5.6 340 11.9 102200 75
2004-04-26 07:18:53 51°20.132 2°44.67 5.2 337 11.9 102210 75
2004-04-26 07:18:57 51°20.136 2°44.646 5.5 339 11.9 102210 75
2004-04-26 07:19:02 51°20.14 2°44.616 5.2 337 11.9 102200 75
2004-04-26 07:19:07 51°20.145 2°44.586 5.2 335 11.9 102200 75
2004-04-26 07:19:13 51°20.151 2°44.55 5.5 337 11.9 102200 75
2004-04-26 07:19:17 51°20.154 2°44.527 5.2 334 11.9 102200 75
2004-04-26 07:19:22 51°20.159 2°44.497 5.6 337 11.9 102200 75
2004-04-26 07:19:29 51°20.165 2°44.455 5.3 337 11.9 102200 75
2004-04-26 07:19:33 51°20.169 2°44.431 5.1 341 11.9 102200 75
2004-04-26 07:19:38 51°20.174 2°44.402 5.8 338 11.9 102200 75
2004-04-26 07:19:42 51°20.177 2°44.378 5.7 344 11.9 102200 75
2004-04-26 07:19:47 51°20.182 2°44.348 5.8 342 11.9 102200 75
2004-04-26 07:19:53 51°20.187 2°44.312 5.5 341 11.9 102200 75
2004-04-26 07:19:57 51°20.191 2°44.288 5.5 344 11.9 102200 75
2004-04-26 07:20:02 51°20.196 2°44.258 5.7 347 11.9 102210 75
2004-04-26 07:20:07 51°20.201 2°44.229 6.5 345 11.9 102210 75
2004-04-26 07:20:11 51°20.205 2°44.205 5.7 346 11.9 102200 75
2004-04-26 07:20:18 51°20.212 2°44.163 6.1 351 11.9 102200 75
2004-04-26 07:20:23 51°20.219 2°44.134 6.1 350 11.9 102210 75
2004-04-26 07:20:27 51°20.224 2°44.112 6.3 350 11.9 102210 75
2004-04-26 07:20:33 51°20.234 2°44.078 6.2 352 11.9 102210 75
2004-04-26 07:20:38 51°20.242 2°44.05 6.3 353 11.9 102210 75
2004-04-26 07:20:43 51°20.251 2°44.022 6.2 351 11.9 102200 75
2004-04-26 07:20:49 51°20.261 2°43.988 6.1 356 11.9 102200 75
2004-04-26 07:20:53 51°20.268 2°43.966 5.9 354 11.9 102200 75
2004-04-26 07:20:57 51°20.275 2°43.944 6.2 353 11.9 102200 75
2004-04-26 07:21:02 51°20.284 2°43.916 6.1 354 11.9 102210 75
2004-04-26 07:21:09 51°20.297 2°43.878 6.7 354 11.9 102210 75
2004-04-26 07:21:13 51°20.304 2°43.856 6.5 354 11.9 102200 75
2004-04-26 07:21:18 51°20.312 2°43.828 6.1 353 11.9 102200 75
2004-04-26 07:21:23 51°20.321 2°43.8 6.2 354 11.9 102210 75
2004-04-26 07:21:38 51°20.347 2°43.716 6.2 352 11.9 102210 75
2004-04-26 07:21:43 51°20.355 2°43.688 6.1 351 11.9 102210 75
2004-04-26 07:21:47 51°20.362 2°43.665 6 351 11.9 102210 75
2004-04-26 07:21:53 51°20.372 2°43.632 5.7 350 11.8 102210 75
2004-04-26 07:21:57 51°20.379 2°43.609 5.8 349 11.8 102210 75
2004-04-26 07:22:03 51°20.39 2°43.575 6 348 11.8 102210 75
2004-04-26 07:22:07 51°20.397 2°43.553 5.9 348 11.8 102210 75
2004-04-26 07:22:13 51°20.408 2°43.52 5.6 348 11.8 102210 75
2004-04-26 07:22:18 51°20.416 2°43.491 5.9 349 11.8 102210 75
2004-04-26 07:22:23 51°20.425 2°43.463 5.7 346 11.8 102210 75
2004-04-26 07:22:29 51°20.435 2°43.429 6 347 11.8 102210 75
2004-04-26 07:22:31 51°20.438 2°43.418 6.1 350 11.8 102210 75
2004-04-26 07:22:37 51°20.448 2°43.384 5.9 346 11.8 102210 75
2004-04-26 07:22:43 51°20.458 2°43.349 6.2 346 11.8 102210 75
2004-04-26 07:22:47 51°20.465 2°43.326 5.9 349 11.8 102210 75
2004-04-26 07:22:53 51°20.475 2°43.292 6.2 351 11.8 102210 75
2004-04-26 07:22:57 51°20.481 2°43.269 6 350 11.8 102210 75
2004-04-26 07:23:02 51°20.49 2°43.241 6.3 348 11.8 102210 75
2004-04-26 07:23:07 51°20.498 2°43.213 6.5 350 11.8 102210 75
2004-04-26 07:23:13 51°20.508 2°43.178 6.2 349 11.8 102200 75
2004-04-26 07:23:18 51°20.516 2°43.15 6.7 352 11.8 102200 75
2004-04-26 07:23:23 51°20.525 2°43.121 6.5 351 11.8 102210 75
2004-04-26 07:23:26 51°20.529 2°43.104 6.9 356 11.8 102210 75
2004-04-26 07:23:33 51°20.538 2°43.063 7 354 11.8 102200 75
2004-04-26 07:23:37 51°20.542 2°43.039 7.4 354 11.8 102200 75
2004-04-26 07:23:43 51°20.547 2°43.003 7.1 355 11.8 102210 75
2004-04-26 07:23:46 51°20.549 2°42.985 7.5 356 11.8 102210 75
2004-04-26 07:23:53 51°20.553 2°42.942 7.2 356 11.8 102200 75
2004-04-26 07:23:57 51°20.555 2°42.917 7.9 355 11.8 102200 75
2004-04-26 07:24:02 51°20.557 2°42.886 7.7 358 11.8 102210 75
2004-04-26 07:24:09 51°20.56 2°42.843 7.6 357 11.8 102210 75
2004-04-26 07:24:13 51°20.561 2°42.818 7.6 355 11.8 102200 75
2004-04-26 07:24:17 51°20.563 2°42.794 8 355 11.8 102200 75
2004-04-26 07:24:22 51°20.565 2°42.762 7.8 357 11.8 102200 75
2004-04-26 07:24:26 51°20.567 2°42.738 7.3 354 11.8 102200 75
2004-04-26 07:24:33 51°20.569 2°42.694 7.4 355 11.8 102200 75
2004-04-26 07:24:38 51°20.571 2°42.663 7.3 355 11.8 102200 75
2004-04-26 07:24:42 51°20.573 2°42.639 7.6 353 11.8 102200 76
2004-04-26 07:24:47 51°20.574 2°42.608 7.3 354 11.8 102200 76
2004-04-26 07:24:53 51°20.577 2°42.57 7.3 352 11.7 102210 76
2004-04-26 07:24:57 51°20.578 2°42.546 7.1 354 11.7 102210 76
2004-04-26 07:25:02 51°20.58 2°42.514 6.9 351 11.7 102200 76
2004-04-26 07:25:07 51°20.583 2°42.483 7.2 353 11.7 102200 76
2004-04-26 07:25:13 51°20.586 2°42.446 6.9 352 11.7 102200 76
2004-04-26 07:25:17 51°20.587 2°42.421 6.8 355 11.7 102200 76
2004-04-26 07:25:22 51°20.589 2°42.39 7 354 11.7 102200 76
2004-04-26 07:25:29 51°20.592 2°42.347 7.3 354 11.7 102200 76
2004-04-26 07:25:33 51°20.594 2°42.322 7.2 354 11.7 102200 75
2004-04-26 07:25:38 51°20.596 2°42.291 7.1 354 11.7 102200 75
2004-04-26 07:25:41 51°20.597 2°42.272 6.8 351 11.7 102200 75
2004-04-26 07:25:47 51°20.6 2°42.234 6.9 353 11.7 102200 75
2004-04-26 07:25:53 51°20.603 2°42.197 6.6 353 11.6 102200 76
2004-04-26 07:25:57 51°20.605 2°42.172 6.7 352 11.6 102200 76
2004-04-26 07:26:02 51°20.607 2°42.14 7 353 11.6 102200 76
2004-04-26 07:26:07 51°20.609 2°42.109 7.1 353 11.6 102200 76
2004-04-26 07:26:13 51°20.612 2°42.072 6.8 351 11.6 102200 76
2004-04-26 07:26:19 51°20.614 2°42.034 6.7 354 11.6 102200 76
2004-04-26 07:26:23 51°20.616 2°42.009 6.9 354 11.6 102200 76
2004-04-26 07:26:29 51°20.619 2°41.972 7.2 355 11.6 102200 76
2004-04-26 07:26:33 51°20.621 2°41.946 7.3 354 11.6 102210 76
2004-04-26 07:26:38 51°20.623 2°41.915 6.8 355 11.6 102210 76
2004-04-26 07:26:43 51°20.625 2°41.884 6.7 354 11.6 102200 75
2004-04-26 07:26:49 51°20.628 2°41.846 7 358 11.6 102200 75
2004-04-26 07:26:53 51°20.63 2°41.821 7.2 358 11.6 102200 75
2004-04-26 07:26:58 51°20.632 2°41.79 7 359 11.6 102200 75
2004-04-26 07:27:03 51°20.635 2°41.758 7.4 359 11.6 102200 75
2004-04-26 07:27:06 51°20.636 2°41.739 7.5 360 11.6 102200 75
2004-04-26 07:27:14 51°20.64 2°41.689 7.5 360 11.6 102200 75
2004-04-26 07:27:19 51°20.642 2°41.658 7.6 359 11.6 102200 75
2004-04-26 07:27:25 51°20.645 2°41.621 7 360 11.6 102200 75
2004-04-26 07:27:30 51°20.648 2°41.589 7.1 1 11.6 102200 76
2004-04-26 07:27:34 51°20.65 2°41.565 7.1 360 11.6 102200 76
2004-04-26 07:27:43 51°20.655 2°41.509 6.8 2 11.6 102200 76
2004-04-26 07:27:47 51°20.657 2°41.484 7.4 3 11.6 102200 76
2004-04-26 07:27:53 51°20.66 2°41.446 7.1 2 11.6 102200 76
2004-04-26 07:27:57 51°20.662 2°41.421 7.3 2 11.6 102200 76
2004-04-26 07:28:02 51°20.665 2°41.39 7.4 360 11.6 102200 76
2004-04-26 07:28:07 51°20.667 2°41.359 7.3   11.6 102200 76
2004-04-26 07:28:13 51°20.67 2°41.322 6.9 359 11.6 102210 76
2004-04-26 07:28:18 51°20.673 2°41.29 6.9 359 11.6 102210 76
2004-04-26 07:28:23 51°20.676 2°41.259 7.1 357 11.6 102200 76
2004-04-26 07:28:27 51°20.678 2°41.234 6.8   11.6 102200 76
2004-04-26 07:28:33 51°20.681 2°41.197 7 359 11.5 102200 76
2004-04-26 07:28:38 51°20.684 2°41.166 6.9 358 11.5 102200 76
2004-04-26 07:28:43 51°20.687 2°41.135 6.9 360 11.5 102200 76
2004-04-26 07:28:46 51°20.689 2°41.116 6.7 360 11.5 102200 76
2004-04-26 07:28:53 51°20.692 2°41.072 6.7 358 11.5 102200 76
2004-04-26 07:28:58 51°20.695 2°41.041 6.6 359 11.5 102200 76
2004-04-26 07:29:03 51°20.697 2°41.01 6.7 359 11.5 102200 76
2004-04-26 07:29:07 51°20.7 2°40.985 6.7 358 11.5 102200 76
2004-04-26 07:29:13 51°20.703 2°40.948 6.9 358 11.5 102200 76
2004-04-26 07:29:17 51°20.705 2°40.923 7.1 358 11.5 102200 76
2004-04-26 07:29:23 51°20.709 2°40.885 6.5 358 11.5 102200 76
2004-04-26 07:29:27 51°20.711 2°40.86 6.7 357 11.5 102200 76
2004-04-26 07:29:33 51°20.715 2°40.823 6.6 359 11.5 102200 76
2004-04-26 07:29:38 51°20.717 2°40.792 6.8 357 11.5 102200 76
2004-04-26 07:29:43 51°20.72 2°40.76 6.7 359 11.5 102200 76
2004-04-26 07:29:49 51°20.724 2°40.723 6.6 358 11.5 102200 76
2004-04-26 07:29:53 51°20.726 2°40.698 6.6 358 11.4 102200 76
2004-04-26 07:29:58 51°20.729 2°40.667 6.6 359 11.4 102200 76
2004-04-26 07:30:03 51°20.732 2°40.637 6.7 358 11.4 102200 76
2004-04-26 07:30:06 51°20.734 2°40.618 6.9 357 11.4 102200 76
2004-04-26 07:30:13 51°20.738 2°40.575 6.7 357 11.4 102200 76
2004-04-26 07:30:18 51°20.741 2°40.544 6.5 358 11.4 102200 76
2004-04-26 07:30:23 51°20.744 2°40.513 6.8 356 11.4 102200 76
2004-04-26 07:30:27 51°20.746 2°40.488 6.7 357 11.4 102200 76
2004-04-26 07:30:33 51°20.75 2°40.451 6.6 358 11.4 102200 75
2004-04-26 07:30:37 51°20.752 2°40.426 6.7 357 11.4 102200 75
2004-04-26 07:30:43 51°20.756 2°40.389 6.6 358 11.4 102210 76
2004-04-26 07:30:49 51°20.76 2°40.352 6.7 358 11.4 102210 76
2004-04-26 07:30:53 51°20.762 2°40.327 6.7 358 11.4 102200 76
2004-04-26 07:30:57 51°20.764 2°40.302 6.4 358 11.4 102200 76
2004-04-26 07:31:02 51°20.767 2°40.271 6.5 358 11.4 102200 75
2004-04-26 07:31:07 51°20.77 2°40.24 6.5 1 11.4 102200 75
2004-04-26 07:31:13 51°20.773 2°40.203 6.9 2 11.4 102200 75
2004-04-26 07:31:18 51°20.776 2°40.172 6.9   11.4 102200 75
2004-04-26 07:31:23 51°20.778 2°40.14 6.8 2 11.4 102200 75
2004-04-26 07:31:27 51°20.779 2°40.115 6.6 359 11.4 102200 75
2004-04-26 07:31:33 51°20.781 2°40.077 6.7 357 11.4 102200 75
2004-04-26 07:31:38 51°20.783 2°40.046 6.9 356 11.4 102200 75
2004-04-26 07:31:41 51°20.784 2°40.027 6.9 358 11.4 102200 75
2004-04-26 07:31:47 51°20.785 2°39.99 7.1 358 11.4 102200 75
2004-04-26 07:31:53 51°20.787 2°39.952 7.1 1 11.4 102200 75
2004-04-26 07:31:58 51°20.789 2°39.921 7 358 11.4 102200 75
2004-04-26 07:32:02 51°20.79 2°39.896 7 359 11.4 102200 75
2004-04-26 07:32:07 51°20.791 2°39.865 6.8 358 11.4 102200 75
2004-04-26 07:32:12 51°20.792 2°39.833 6.5 359 11.4 102200 75
2004-04-26 07:32:17 51°20.793 2°39.802 6.5 357 11.4 102200 75
2004-04-26 07:32:22 51°20.793 2°39.771 6.5 358 11.4 102200 75
2004-04-26 07:32:29 51°20.795 2°39.728 6.6 358 11.4 102200 75
2004-04-26 07:32:32 51°20.796 2°39.709 6.5 357 11.4 102200 75
2004-04-26 07:32:36 51°20.797 2°39.684 6.8 358 11.4 102200 75
2004-04-26 07:32:42 51°20.798 2°39.647 6.5 359 11.4 102200 75
2004-04-26 07:32:46 51°20.799 2°39.622 6.5 357 11.4 102200 75
2004-04-26 07:32:53 51°20.801 2°39.578 7 357 11.4 102200 75
2004-04-26 07:32:58 51°20.802 2°39.547 6.5 357 11.4 102200 75
2004-04-26 07:33:03 51°20.802 2°39.516 6.6 357 11.4 102200 75
2004-04-26 07:33:07 51°20.804 2°39.491 6.7 358 11.4 102200 75
2004-04-26 07:33:13 51°20.805 2°39.454 6.4 358 11.4 102200 75
2004-04-26 07:33:18 51°20.806 2°39.423 6.4 359 11.4 102200 75
2004-04-26 07:33:23 51°20.807 2°39.392 6.6 357 11.4 102200 75
2004-04-26 07:33:29 51°20.808 2°39.354 6.7 357 11.4 102200 75
2004-04-26 07:33:33 51°20.809 2°39.329 6.6 359 11.4 102200 76
2004-04-26 07:33:38 51°20.81 2°39.297 6.1 358 11.4 102200 76
2004-04-26 07:33:43 51°20.812 2°39.266 6.4 357 11.4 102200 75
2004-04-26 07:33:47 51°20.813 2°39.241 6.2 357 11.4 102200 75
2004-04-26 07:33:53 51°20.814 2°39.203 6.3 357 11.4 102200 75
2004-04-26 07:33:57 51°20.815 2°39.178 6.6 358 11.4 102200 75
2004-04-26 07:34:02 51°20.816 2°39.147 6.5 356 11.4 102200 75
2004-04-26 07:34:09 51°20.817 2°39.103 6.6 358 11.4 102200 75
2004-04-26 07:34:12 51°20.818 2°39.084 6.5 356 11.4 102200 75
2004-04-26 07:34:17 51°20.819 2°39.053 6.3 357 11.4 102200 75
2004-04-26 07:34:22 51°20.82 2°39.022 6.3 356 11.4 102200 75
2004-04-26 07:34:27 51°20.821 2°38.99 6.4 359 11.4 102200 75
2004-04-26 07:34:32 51°20.823 2°38.959 6.6 357 11.4 102200 75
2004-04-26 07:34:37 51°20.824 2°38.927 6.7 358 11.4 102200 75
2004-04-26 07:34:41 51°20.825 2°38.902 6.4 358 11.4 102200 75
2004-04-26 07:34:47 51°20.826 2°38.864 6.4 356 11.4 102200 75
2004-04-26 07:34:53 51°20.827 2°38.826 6.8 357 11.4 102200 75
2004-04-26 07:34:57 51°20.827 2°38.8 6.4 357 11.4 102200 75
2004-04-26 07:35:02 51°20.829 2°38.769 6.8 357 11.4 102200 75
2004-04-26 07:35:07 51°20.83 2°38.737 6.3 358 11.4 102200 75
2004-04-26 07:35:12 51°20.831 2°38.705 6.7 358 11.4 102200 75
2004-04-26 07:35:17 51°20.832 2°38.674 6.5 359 11.4 102200 75
2004-04-26 07:35:21 51°20.833 2°38.648 6.9 358 11.4 102200 75
2004-04-26 07:35:27 51°20.834 2°38.61 6.8 358 11.4 102200 75
2004-04-26 07:35:33 51°20.835 2°38.572 6.9 359 11.4 102200 75
2004-04-26 07:35:38 51°20.837 2°38.54 6.8 358 11.4 102200 75
2004-04-26 07:35:42 51°20.838 2°38.515 7.1 358 11.4 102200 75
2004-04-26 07:35:49 51°20.839 2°38.47 7.1 358 11.4 102200 75
2004-04-26 07:35:53 51°20.84 2°38.445 6.6 358 11.4 102200 75
2004-04-26 07:35:58 51°20.841 2°38.413 6.5 358 11.4 102200 75
2004-04-26 07:36:02 51°20.841 2°38.388 6.8 358 11.4 102200 75
2004-04-26 07:36:08 51°20.843 2°38.35 6.7 357 11.4 102200 75
2004-04-26 07:36:12 51°20.844 2°38.324 6.6 358 11.4 102200 75
2004-04-26 07:36:17 51°20.845 2°38.293 6.8 358 11.4 102200 75
2004-04-26 07:36:22 51°20.847 2°38.261 6.8 358 11.4 102200 75
2004-04-26 07:36:25 51°20.847 2°38.242 6.7 359 11.4 102200 75
2004-04-26 07:36:33 51°20.849 2°38.191 6.9 358 11.4 102200 76
2004-04-26 07:36:37 51°20.85 2°38.165 6.9 359 11.4 102200 76
2004-04-26 07:36:42 51°20.851 2°38.133 6.8 358 11.4 102200 75
2004-04-26 07:36:47 51°20.852 2°38.101 6.9 358 11.4 102200 75
2004-04-26 07:36:53 51°20.853 2°38.063 6.4 357 11.4 102200 75
2004-04-26 07:36:57 51°20.854 2°38.038 6.9 358 11.4 102200 75
2004-04-26 07:37:01 51°20.855 2°38.012 6.7 356 11.4 102200 75
2004-04-26 07:37:07 51°20.856 2°37.974 7.1 357 11.4 102200 75
2004-04-26 07:37:12 51°20.858 2°37.942 6.9 358 11.4 102200 76
2004-04-26 07:37:17 51°20.859 2°37.91 6.8 358 11.4 102200 76
2004-04-26 07:37:22 51°20.86 2°37.879 6.6 356 11.4 102200 76
2004-04-26 07:37:27 51°20.861 2°37.847 6.6 357 11.4 102200 76
2004-04-26 07:37:32 51°20.862 2°37.815 6.9 357 11.4 102200 76
2004-04-26 07:37:38 51°20.863 2°37.777 6.5 356 11.4 102200 76
2004-04-26 07:37:42 51°20.864 2°37.752 6.7 358 11.4 102200 76
2004-04-26 07:37:46 51°20.865 2°37.727 6.4 358 11.4 102200 76
2004-04-26 07:37:53 51°20.867 2°37.683 6.7 357 11.4 102200 76
2004-04-26 07:37:56 51°20.868 2°37.664 6.3 357 11.4 102200 76
2004-04-26 07:38:01 51°20.869 2°37.632 6.8 359 11.4 102200 76
2004-04-26 07:38:07 51°20.87 2°37.595 6.5 358 11.4 102200 76
2004-04-26 07:38:12 51°20.872 2°37.563 6.5 357 11.4 102200 76
2004-04-26 07:38:17 51°20.873 2°37.532 6.4 359 11.4 102200 76
2004-04-26 07:38:21 51°20.874 2°37.507 6.6 358 11.3 102200 76
2004-04-26 07:38:27 51°20.876 2°37.469 6.6 360 11.3 102200 76
2004-04-26 07:38:32 51°20.877 2°37.437 6.7 360 11.3 102200 76
2004-04-26 07:38:36 51°20.878 2°37.412 6.5 358 11.3 102200 76
2004-04-26 07:38:42 51°20.88 2°37.374 7 359 11.4 102200 76
2004-04-26 07:38:47 51°20.881 2°37.343 7.1 358 11.4 102200 76
2004-04-26 07:38:53 51°20.883 2°37.305 6.6 360 11.3 102200 76
2004-04-26 07:38:57 51°20.884 2°37.28 7 359 11.3 102200 76
2004-04-26 07:39:02 51°20.885 2°37.248 6.9 359 11.3 102200 76
2004-04-26 07:39:07 51°20.886 2°37.217 6.9 357 11.3 102200 76
2004-04-26 07:39:13 51°20.887 2°37.179 6.7 357 11.3 102200 76
2004-04-26 07:39:17 51°20.888 2°37.154 7 360 11.3 102200 76
2004-04-26 07:39:22 51°20.89 2°37.122 7.3 359 11.3 102200 76
2004-04-26 07:39:25 51°20.89 2°37.103 7.5 1 11.3 102200 76
2004-04-26 07:39:33 51°20.893 2°37.053 7.1 2 11.3 102200 76
2004-04-26 07:39:37 51°20.893 2°37.028 7.2   11.3 102200 76
2004-04-26 07:39:42 51°20.895 2°36.996 7.2 359 11.3 102200 76
2004-04-26 07:39:47 51°20.896 2°36.965 7.2 359 11.3 102200 76
2004-04-26 07:39:53 51°20.898 2°36.927 7.2 359 11.3 102200 76
2004-04-26 07:39:57 51°20.898 2°36.902 7.2 1 11.3 102200 76
2004-04-26 07:40:02 51°20.9 2°36.871 7.1 359 11.3 102200 76
2004-04-26 07:40:07 51°20.901 2°36.839 7 1 11.3 102200 76
2004-04-26 07:40:12 51°20.902 2°36.808 7.2 1 11.3 102200 76
2004-04-26 07:40:17 51°20.904 2°36.777 7.1 1 11.3 102200 76
2004-04-26 07:40:22 51°20.905 2°36.745 7.4 1 11.3 102200 76
2004-04-26 07:40:28 51°20.906 2°36.708 7.2 1 11.3 102200 76
2004-04-26 07:40:32 51°20.907 2°36.683 7   11.3 102200 76
2004-04-26 07:40:36 51°20.908 2°36.657 6.7   11.3 102200 76
2004-04-26 07:40:42 51°20.91 2°36.62 7 360 11.3 102200 76
2004-04-26 07:40:47 51°20.911 2°36.588 7   11.3 102200 76
2004-04-26 07:40:53 51°20.913 2°36.551 6.9 359 11.3 102200 76
2004-04-26 07:41:02 51°20.915 2°36.494 6.8 357 11.3 102200 76
2004-04-26 07:41:06 51°20.916 2°36.469 6.9 359 11.3 102200 76
2004-04-26 07:41:12 51°20.917 2°36.431 6.9 357 11.2 102200 77
2004-04-26 07:41:17 51°20.919 2°36.399 6.5 357 11.2 102200 77
2004-04-26 07:41:23 51°20.92 2°36.362 6.5 357 11.2 102200 77
2004-04-26 07:41:28 51°20.922 2°36.33 6.6 358 11.2 102200 77
2004-04-26 07:41:32 51°20.922 2°36.306 6.7 357 11.2 102200 77
2004-04-26 07:41:37 51°20.924 2°36.274 6.6 356 11.2 102200 77
2004-04-26 07:41:42 51°20.925 2°36.243 6.1 357 11.2 102200 77
2004-04-26 07:41:47 51°20.926 2°36.211 6.7 357 11.2 102200 77
2004-04-26 07:41:52 51°20.928 2°36.18 6.2 356 11.2 102190 77
2004-04-26 07:41:57 51°20.929 2°36.149 6.8 358 11.2 102190 77
2004-04-26 07:42:01 51°20.93 2°36.124 6.3 356 11.2 102200 76
2004-04-26 07:42:08 51°20.932 2°36.081 6.2 356 11.2 102200 76
2004-04-26 07:42:11 51°20.933 2°36.062 6.6 357 11.2 102200 76
2004-04-26 07:42:17 51°20.934 2°36.025 3.3 358 11.2 102200 76
2004-04-26 07:42:21 51°20.936 2°36 3.3 356 11.2 102200 76
2004-04-26 07:42:27 51°20.937 2°35.963 6.3 356 11.2 102200 76
2004-04-26 07:42:33 51°20.939 2°35.926 6.2 357 11.2 102200 76
2004-04-26 07:42:37 51°20.94 2°35.901 6.3 356 11.2 102200 76
2004-04-26 07:42:42 51°20.941 2°35.87 6.5 356 11.2 102200 76
2004-04-26 07:42:47 51°20.942 2°35.839 6.2 356 11.2 102200 76
2004-04-26 07:42:53 51°20.944 2°35.802 6.5 356 11.2 102200 76
2004-04-26 07:42:57 51°20.945 2°35.777 6.4 357 11.2 102200 76
2004-04-26 07:43:01 51°20.946 2°35.753 6.4 357 11.2 102200 76
2004-04-26 07:43:09 51°20.949 2°35.703 6.2 358 11.2 102200 76
2004-04-26 07:43:12 51°20.949 2°35.685 6.7 358 11.2 102200 76
2004-04-26 07:43:17 51°20.95 2°35.654 6.7 357 11.2 102200 76
2004-04-26 07:43:22 51°20.952 2°35.623 6.3 357 11.2 102200 76
2004-04-26 07:43:27 51°20.953 2°35.592 6.4 357 11.2 102200 76
2004-04-26 07:43:33 51°20.954 2°35.555 6.2 1 11.2 102200 76
2004-04-26 07:43:37 51°20.955 2°35.53 6.3 358 11.2 102200 76
2004-04-26 07:43:42 51°20.957 2°35.499 6.5 359 11.2 102200 77
2004-04-26 07:43:45 51°20.958 2°35.481 6.5 356 11.2 102200 77
2004-04-26 07:43:53 51°20.96 2°35.431 6.6 359 11.2 102200 77
2004-04-26 07:43:57 51°20.961 2°35.406 6.7 359 11.2 102200 77
2004-04-26 07:44:01 51°20.961 2°35.381 6.4 360 11.2 102200 77
2004-04-26 07:44:07 51°20.963 2°35.344 6.7 358 11.2 102200 77
2004-04-26 07:44:13 51°20.964 2°35.306 6.6 358 11.2 102200 77
2004-04-26 07:44:17 51°20.966 2°35.281 6.6 359 11.2 102200 77
2004-04-26 07:44:22 51°20.967 2°35.25 6.7 358 11.2 102200 77
2004-04-26 07:44:27 51°20.968 2°35.219 6.4 357 11.2 102200 77
2004-04-26 07:44:33 51°20.97 2°35.181 6.7 357 11.2 102200 77
2004-04-26 07:44:37 51°20.97 2°35.156 6.4 357 11.2 102200 77
2004-04-26 07:44:42 51°20.972 2°35.124 6.4 358 11.2 102200 77
2004-04-26 07:44:47 51°20.973 2°35.093 6.6 360 11.2 102200 77
2004-04-26 07:44:52 51°20.975 2°35.061 6.3 358 11.2 102200 77
2004-04-26 07:44:57 51°20.976 2°35.03 6.6 359 11.2 102200 77
2004-04-26 07:45:02 51°20.978 2°34.998 6.6 357 11.2 102200 77
2004-04-26 07:45:09 51°20.98 2°34.954 6.6 358 11.2 102200 77
2004-04-26 07:45:13 51°20.981 2°34.929 6.4 358 11.2 102200 77
2004-04-26 07:45:17 51°20.982 2°34.904 6.3 357 11.2 102200 77
2004-04-26 07:45:22 51°20.984 2°34.872 6.6 356 11.2 102200 77
2004-04-26 07:45:27 51°20.986 2°34.841 6.1 357 11.2 102200 77
2004-04-26 07:45:33 51°20.988 2°34.803 6.2 356 11.2 102200 77
2004-04-26 07:45:42 51°20.991 2°34.746 6.5 356 11.2 102200 77
2004-04-26 07:45:46 51°20.992 2°34.721 6.1 356 11.2 102200 77
2004-04-26 07:45:53 51°20.994 2°34.677 6 357 11.2 102200 77
2004-04-26 07:45:56 51°20.995 2°34.658 6 357 11.2 102200 77
2004-04-26 07:46:02 51°20.997 2°34.62 6.3 357 11.2 102200 77
2004-04-26 07:46:09 51°21 2°34.576 6.3 358 11.2 102200 77
2004-04-26 07:46:13 51°21.001 2°34.551 6.6 360 11.2 102200 77
2004-04-26 07:46:17 51°21.003 2°34.526 6.5 359 11.2 102200 77
2004-04-26 07:46:22 51°21.004 2°34.495 6.5 360 11.2 102200 77
2004-04-26 07:46:27 51°21.006 2°34.463 6.7 360 11.2 102200 77
2004-04-26 07:46:33 51°21.008 2°34.426 6.5 359 11.2 102200 77
2004-04-26 07:46:37 51°21.009 2°34.401 6.6 360 11.2 102200 77
2004-04-26 07:46:41 51°21.011 2°34.376 6.6   11.2 102200 77
2004-04-26 07:46:49 51°21.014 2°34.325 6.6   11.2 102200 77
2004-04-26 07:46:51 51°21.014 2°34.313 6.3 2 11.2 102200 77
2004-04-26 07:46:57 51°21.016 2°34.275 6.4 2 11.2 102200 77
2004-04-26 07:47:01 51°21.018 2°34.25 6.5   11.2 102200 77
2004-04-26 07:47:07 51°21.02 2°34.213 6.8 2 11.2 102200 77
2004-04-26 07:47:13 51°21.022 2°34.175 6.5 2 11.2 102200 77
2004-04-26 07:47:17 51°21.023 2°34.15 6.4 2 11.2 102200 77
2004-04-26 07:47:22 51°21.025 2°34.119 7 2 11.2 102200 77
2004-04-26 07:47:27 51°21.027 2°34.088 6.8 2 11.2 102200 77
2004-04-26 07:47:32 51°21.028 2°34.056 6.6 4 11.2 102200 77
2004-04-26 07:47:37 51°21.03 2°34.025 6.9 3 11.2 102200 77
2004-04-26 07:47:41 51°21.032 2°34 6.6 3 11.2 102200 77
2004-04-26 07:47:48 51°21.035 2°33.956 6.7 3 11.2 102200 77
2004-04-26 07:47:53 51°21.037 2°33.925 6.7 3 11.2 102200 77
2004-04-26 07:47:56 51°21.038 2°33.907 6.9 4 11.2 102200 77
2004-04-26 07:48:02 51°21.04 2°33.869 6.9 4 11.2 102200 77
2004-04-26 07:48:07 51°21.042 2°33.838 6.6 4 11.2 102200 77
2004-04-26 07:48:12 51°21.043 2°33.807 6.8 4 11.2 102200 78
2004-04-26 07:48:17 51°21.045 2°33.776 6.7 3 11.2 102200 78
2004-04-26 07:48:22 51°21.046 2°33.745 6.7 2 11.2 102200 78
2004-04-26 07:48:26 51°21.047 2°33.72 6.7 2 11.2 102200 78
2004-04-26 07:48:32 51°21.048 2°33.683 6.9 2 11.2 102200 78
2004-04-26 07:48:37 51°21.05 2°33.652 7.1 1 11.2 102200 78
2004-04-26 07:48:42 51°21.051 2°33.621 7 2 11.2 102200 78
2004-04-26 07:48:48 51°21.053 2°33.584 7.2 2 11.2 102200 78
2004-04-26 07:48:52 51°21.054 2°33.559 6.6 2 11.1 102200 78
2004-04-26 07:48:57 51°21.056 2°33.528 6.9   11.1 102200 78
2004-04-26 07:49:02 51°21.057 2°33.497 6.8 2 11.1 102200 78
2004-04-26 07:49:08 51°21.059 2°33.459 6.7 1 11.1 102200 78
2004-04-26 07:49:12 51°21.06 2°33.435 6.7 2 11.1 102200 78
2004-04-26 07:49:16 51°21.061 2°33.41 6.5 1 11.1 102200 78
2004-04-26 07:49:22 51°21.063 2°33.372 7 359 11.1 102200 78
2004-04-26 07:49:27 51°21.064 2°33.341 6.5 359 11.1 102200 78
2004-04-26 07:49:32 51°21.066 2°33.31 6.9 359 11.1 102200 78
2004-04-26 07:49:37 51°21.068 2°33.279 6.5 358 11.1 102200 78
2004-04-26 07:49:42 51°21.07 2°33.249 6.2 358 11.1 102200 78
2004-04-26 07:49:46 51°21.073 2°33.224 6.4 360 11.1 102200 78
2004-04-26 07:49:53 51°21.081 2°33.183 6.2 359 11.1 102200 78
2004-04-26 07:49:58 51°21.089 2°33.155 5.9 1 11.1 102200 78
2004-04-26 07:50:03 51°21.099 2°33.129 6 2 11.1 102200 78
2004-04-26 07:50:07 51°21.108 2°33.109 6 2 11.1 102200 78
2004-04-26 07:50:13 51°21.123 2°33.081 5.8 3 11 102200 78
2004-04-26 07:50:18 51°21.137 2°33.06 5.9 5 11 102200 78
2004-04-26 07:50:22 51°21.149 2°33.046 5.8 8 11 102200 78
2004-04-26 07:50:28 51°21.168 2°33.027 5.9 9 11 102200 78
2004-04-26 07:50:33 51°21.186 2°33.014 5.9 8 11 102200 78
2004-04-26 07:50:37 51°21.2 2°33.006 6.1 11 11 102200 78
2004-04-26 07:50:42 51°21.218 2°32.995 5.9 10 11 102200 77
2004-04-26 07:50:48 51°21.239 2°32.981 6.2 9 11 102200 77
2004-04-26 07:50:52 51°21.253 2°32.971 6 8 11 102200 77
2004-04-26 07:50:56 51°21.267 2°32.961 6.3 12 11 102200 77
2004-04-26 07:51:02 51°21.289 2°32.948 6.1 9 11 102200 77
2004-04-26 07:51:07 51°21.307 2°32.936 6.4 11 11 102200 77
2004-04-26 07:51:12 51°21.326 2°32.926 6.2 11 11 102200 78
2004-04-26 07:51:17 51°21.345 2°32.918 6.5 12 11 102200 78
2004-04-26 07:51:22 51°21.364 2°32.912 6.5 12 11 102200 78
2004-04-26 07:51:26 51°21.379 2°32.907 6.8 14 11 102200 78
2004-04-26 07:51:32 51°21.403 2°32.901 6.7 13 11 102200 78
2004-04-26 07:51:37 51°21.422 2°32.896 6.7 12 11 102200 78
2004-04-26 07:51:42 51°21.441 2°32.892 6.5 12 11.1 102200 78
2004-04-26 07:51:53 51°21.484 2°32.882 6.6 13 11.1 102200 78
2004-04-26 07:52:00 51°21.511 2°32.876 6.4 13 11.1 102200 78
2004-04-26 07:52:03 51°21.523 2°32.874 6.6 13 11.1 102200 78
2004-04-26 07:52:09 51°21.546 2°32.868 6.9 13 11.1 102190 78
2004-04-26 07:52:14 51°21.566 2°32.864 6.5 14 11.1 102190 78
2004-04-26 07:52:19 51°21.585 2°32.859 6.8 14 11.1 102200 78
2004-04-26 07:52:24 51°21.605 2°32.855 6.5 13 11.1 102200 78
2004-04-26 07:52:29 51°21.624 2°32.85 6.7 13 11.1 102190 78
2004-04-26 07:52:33 51°21.64 2°32.846 6.4 13 11.1 102190 78
2004-04-26 07:52:38 51°21.659 2°32.841 6.6 13 11.1 102200 78
2004-04-26 07:52:44 51°21.682 2°32.836 6.4 14 11.1 102200 78
2004-04-26 07:52:48 51°21.698 2°32.832 6.5 13 11.1 102200 78
2004-04-26 07:52:54 51°21.721 2°32.826 6.5 15 11.1 102200 78
2004-04-26 07:52:59 51°21.741 2°32.822 6.4 14 11.1 102190 78
2004-04-26 07:53:04 51°21.76 2°32.817 6.5 14 11.1 102190 78
2004-04-26 07:53:09 51°21.779 2°32.812 6.6 15 11.1 102200 78
2004-04-26 07:53:14 51°21.799 2°32.807 6.2 15 11.1 102200 78
2004-04-26 07:53:20 51°21.822 2°32.802 6.3 16 11.1 102190 78
2004-04-26 07:53:25 51°21.841 2°32.797 6.1 16 11.1 102190 78
2004-04-26 07:53:28 51°21.853 2°32.795 6.2 16 11.1 102190 78
2004-04-26 07:53:34 51°21.876 2°32.789 6 17 11.1 102190 78
2004-04-26 07:53:39 51°21.896 2°32.785 6.2 17 11.1 102190 78
2004-04-26 07:53:44 51°21.915 2°32.78 6.1 17 11.1 102190 78
2004-04-26 07:53:49 51°21.935 2°32.775 6.1 16 11.1 102200 78
2004-04-26 07:53:54 51°21.954 2°32.77 5.8 17 11.1 102200 78
2004-04-26 07:54:00 51°21.978 2°32.764 6 17 11.1 102200 78
2004-04-26 07:54:05 51°21.997 2°32.759 6 18 11.1 102200 78
2004-04-26 07:54:08 51°22.009 2°32.756 6 16 11.2 102200 78
2004-04-26 07:54:14 51°22.032 2°32.749 5.8 17 11.2 102200 78
2004-04-26 07:54:19 51°22.051 2°32.744 5.8 17 11.2 102200 78
2004-04-26 07:54:24 51°22.071 2°32.739 5.8 17 11.2 102200 78
2004-04-26 07:54:29 51°22.09 2°32.734 5.9 18 11.2 102200 78